This demonstration page uses our WeatherBlox Daily Observations layout. Learn more.

Left ArrowRight Arrow

40.92945, -100.16068

Hourly Observations for February 14, 2022

Temp ( °F °C ) Dew Point ( °F °C ) Humidity (%) Winds ( mph kmh ) Pressure ( in mb ) Visibility ( mi km ) Precip ( " mm )
12:15 am 00:15 Clear 27 -2.6 15 -9.3 60 60 W 12 19 30.25 1025 10 16 0.00 0.00
12:35 am 00:35 Clear 29 -1.7 16 -8.9 58 58 W 10 17 30.25 1025 10 16 0.00 0.00
12:55 am 00:55 Clear 27 -2.9 15 -9.4 61 61 WNW 9 15 30.27 1025 10 16 0.00 0.00
1:15 am 01:15 Clear 27 -2.8 15 -9.2 62 62 W 10 17 30.28 1025 10 16 0.00 0.00
1:35 am 01:35 Clear 28 -2.1 16 -8.8 61 61 NW 12 19 30.27 1025 10 16 0.00 0.00
1:55 am 01:55 Clear 27 -2.7 16 -8.9 63 63 NW 8 13 30.27 1025 10 16 0.00 0.00
2:15 am 02:15 Clear 26 -3.4 15 -9.4 64 64 NW 9 15 30.28 1025 10 16 0.00 0.00
2:35 am 02:35 Clear 26 -3.2 16 -9 65 65 WNW 8 13 30.29 1026 10 16 0.00 0.00
2:55 am 02:55 Clear 23 -5 15 -9.3 72 72 WNW 7 11 30.31 1026 10 16 0.00 0.00
3:15 am 03:15 Clear 24 -4.7 16 -9 72 72 WNW 12 19 30.32 1027 10 16 0.00 0.00
3:35 am 03:35 Clear 25 -3.9 17 -8.6 70 70 WNW 10 17 30.31 1026 10 16 0.00 0.00
3:55 am 03:55 Clear 24 -4.7 16 -9 72 72 W 9 15 30.32 1027 10 16 0.00 0.00
4:15 am 04:15 Clear 23 -5.1 16 -9 74 74 W 10 17 30.33 1027 10 16 0.00 0.00
4:35 am 04:35 Clear 25 -4.1 17 -8.2 73 73 W 7 11 30.32 1027 10 16 0.00 0.00
4:55 am 04:55 Clear 25 -4.1 17 -8.4 72 72 W 8 13 30.32 1027 10 16 0.00 0.00
5:15 am 05:15 Clear 23 -4.8 16 -8.7 74 74 WNW 8 13 30.34 1027 10 16 0.00 0.00
5:35 am 05:35 Clear 23 -5.1 16 -8.9 75 75 WNW 8 13 30.35 1028 10 16 0.00 0.00
5:55 am 05:55 Clear 20 -6.4 15 -9.6 78 78 NW 7 11 30.36 1028 10 16 0.00 0.00
6:15 am 06:15 Clear 20 -6.8 15 -9.7 80 80 WNW 8 13 30.38 1029 10 16 0.00 0.00
6:35 am 06:35 Clear 20 -6.4 16 -9.1 81 81 NW 9 15 30.37 1029 10 16 0.00 0.00
6:55 am 06:55 Clear 20 -6.5 15 -9.4 80 80 NNW 8 13 30.38 1029 10 16 0.00 0.00
7:15 am 07:15 Clear 18 -7.7 13 -10.3 82 82 W 7 11 30.41 1030 10 16 0.00 0.00
7:35 am 07:35 Sunny 17 -8.2 13 -10.4 84 84 WNW 9 15 30.42 1030 10 16 0.00 0.00
7:55 am 07:55 Sunny 18 -7.6 14 -10.2 82 82 NW 7 11 30.42 1030 10 16 0.00 0.00
8:15 am 08:15 Sunny 20 -6.9 15 -9.5 82 82 NNW 6 9 30.41 1030 7 11 0.00 0.00
8:35 am 08:35 Sunny 25 -4.1 18 -7.7 76 76 NW 3 6 30.39 1029 10 16 0.00 0.00
8:55 am 08:55 Sunny 28 -2.1 20 -6.5 72 72 NNW 6 9 30.37 1028 10 16 0.00 0.00
9:15 am 09:15 Sunny 32 -0.2 21 -6.1 65 65 N 6 9 30.35 1028 10 16 0.00 0.00
9:35 am 09:35 Sunny 34 1.1 21 -5.9 60 60 NE 8 13 30.35 1028 10 16 0.00 0.00
9:55 am 09:55 Sunny 36 2.3 21 -5.9 55 55 NE 9 15 30.33 1027 10 16 0.00 0.00
10:15 am 10:15 Sunny 37 2.9 20 -6.5 50 50 NE 8 13 30.33 1027 10 16 0.00 0.00
10:35 am 10:35 Sunny 38 3.3 19 -7 47 47 NE 6 9 30.33 1027 10 16 0.00 0.00
10:55 am 10:55 Sunny 39 4 19 -7 45 45 E 7 11 30.32 1027 10 16 0.00 0.00
11:15 am 11:15 Sunny 40 4.4 20 -6.9 44 44 E 3 6 30.31 1027 10 16 0.00 0.00
11:35 am 11:35 Sunny 41 4.8 20 -6.8 43 43 ESE 7 11 30.30 1026 10 16 0.00 0.00
11:55 am 11:55 Sunny 41 5 19 -7 42 42 ENE 3 6 30.30 1026 10 16 0.00 0.00
12:15 pm 12:15 Sunny 43 5.9 20 -6.7 40 40 E 7 11 30.28 1025 10 16 0.00 0.00
12:35 pm 12:35 Sunny 43 6 19 -7 39 39 Calm 30.27 1025 10 16 0.00 0.00
12:55 pm 12:55 Sunny 43 6.3 19 -7.1 38 38 ESE 3 6 30.26 1025 10 16 0.00 0.00
1:15 pm 13:15 Sunny 45 7 19 -7.1 36 36 ESE 7 11 30.23 1024 10 16 0.00 0.00
1:35 pm 13:35 Sunny 45 7.2 19 -7.1 36 36 SSE 3 6 30.21 1023 10 16 0.00 0.00
1:55 pm 13:55 Sunny 46 7.5 19 -7.4 34 34 SE 9 15 30.19 1023 10 16 0.00 0.00
2:15 pm 14:15 Sunny 47 8.4 19 -7 33 33 ESE 9 15 30.17 1022 10 16 0.00 0.00
2:35 pm 14:35 Sunny 47 8.3 19 -7.1 33 33 SE 8 13 30.15 1021 10 16 0.00 0.00
2:55 pm 14:55 Sunny 48 9 19 -7 32 32 SSE 9 15 30.13 1020 10 16 0.00 0.00
3:15 pm 15:15 Sunny 48 9 20 -6.9 32 32 SSE 13 20 30.12 1020 10 16 0.00 0.00
3:35 pm 15:35 Sunny 49 9.5 20 -6.7 32 32 SE 14 22 30.11 1019 10 16 0.00 0.00
3:55 pm 15:55 Sunny 49 9.5 20 -6.7 32 32 SE 13 20 30.11 1019 10 16 0.00 0.00
4:15 pm 16:15 Sunny 49 9.6 20 -6.6 32 32 SSE 13 20 30.09 1019 10 16 0.00 0.00
4:35 pm 16:35 Sunny 49 9.7 20 -6.6 31 31 S 14 22 30.08 1019 10 16 0.00 0.00
4:55 pm 16:55 Sunny 49 9.3 20 -6.6 32 32 SSE 16 26 30.08 1019 10 16 0.00 0.00
5:15 pm 17:15 Sunny 48 9 20 -6.6 33 33 SSE 15 24 30.07 1018 10 16 0.00 0.00
5:35 pm 17:35 Sunny 47 8.5 20 -6.6 34 34 SSE 14 22 30.08 1018 10 16 0.00 0.00
5:55 pm 17:55 Sunny 45 7.3 20 -6.8 36 36 SSE 13 20 30.09 1019 10 16 0.00 0.00
6:15 pm 18:15 Clear 44 6.5 19 -7 38 38 SSE 10 17 30.09 1019 10 16 0.00 0.00
6:35 pm 18:35 Clear 43 6 19 -7 39 39 SE 10 17 30.10 1019 10 16 0.00 0.00
6:55 pm 18:55 Clear 42 5.6 19 -7 40 40 SE 9 15 30.10 1019 10 16 0.00 0.00
7:15 pm 19:15 Clear 41 5 19 -7.2 41 41 SE 10 17 30.10 1019 10 16 0.00 0.00
7:35 pm 19:35 Clear 38 3.5 18 -7.6 44 44 SSE 7 11 30.12 1020 10 16 0.00 0.00
7:55 pm 19:55 Clear 35 1.7 18 -8 49 49 SSE 8 13 30.14 1021 10 16 0.00 0.00
8:15 pm 20:15 Clear 36 2 18 -7.8 49 49 SSE 9 15 30.13 1020 10 16 0.00 0.00
8:35 pm 20:35 Clear 35 1.8 18 -7.9 49 49 SSE 8 13 30.13 1020 10 16 0.00 0.00
8:55 pm 20:55 Clear 36 2.2 18 -7.8 48 48 SE 7 11 30.14 1020 10 16 0.00 0.00
9:15 pm 21:15 Clear 36 2.4 18 -7.9 47 47 SE 9 15 30.12 1020 10 16 0.00 0.00
9:35 pm 21:35 Clear 36 2 17 -8.3 47 47 SE 12 19 30.13 1020 10 16 0.00 0.00
9:55 pm 21:55 Clear 35 1.7 17 -8.6 47 47 SE 10 17 30.12 1020 10 16 0.00 0.00
10:15 pm 22:15 Clear 32 0.2 16 -8.8 51 51 SE 8 13 30.14 1020 10 16 0.00 0.00
10:35 pm 22:35 Clear 32 0.1 16 -9 51 51 SE 9 15 30.13 1020 10 16 0.00 0.00
10:55 pm 22:55 Clear 32 0 16 -9.1 51 51 SE 10 17 30.12 1020 10 16 0.00 0.00
11:15 pm 23:15 Clear 31 -0.7 15 -9.6 51 51 SE 10 17 30.12 1020 10 16 0.00 0.00
11:35 pm 23:35 Clear 30 -0.9 15 -9.7 52 52 SE 10 17 30.12 1020 10 16 0.00 0.00
11:55 pm 23:55 Clear 29 -1.4 15 -9.6 54 54 ESE 8 13 30.11 1020 10 16 0.00 0.00

Powered by AerisWeather